Miscellaneous Local Product
Issued by NWS North Platte, NE

Home | Current Version | Previous Version | Text Only | Print | Product List | Glossary On
Versions: 1 2 3 4 5 6 7 8 9 10 11 12 13 14 15 16 17 18 19 20 21 22 23 24 25 26 27 28 29 30 31 32 33 34 35 36 37 38 39 40 41 42 43 44 45 46 47 48 49 50
000
AXUS43 KLBF 260010
MISLBF


WESTERN AND NORTH CENTRAL NEBRASKA HOURLY WEATHER ROUNDUP
NATIONAL WEATHER SERVICE NORTH PLATTE NE
700 PM CDT SAT APR 25 2015

***STATIONS NOT REPORTING VARIABLES SUCH AS SKY/WEATHER OR
PRESSURE ARE PROVIDED BY THE NEBRASKA DEPARTMENT OF
ROADS...RAWS...AND APRS NETWORKS...AND ARE NOT UNDER
NATIONAL WEATHER SERVICE QUALITY CONTROL***

...OBSERVATIONS IN AND NEAR THE EASTERN PANHANDLE OF NEBRASKA...

CITY           SKY/WX    TMP DP  RH WIND       PRES   REMARKS
PINE RIDGE     CLOUDY    60  45  57 E8        29.72R THUNDER
CHADRON        CLOUDY    54  45  71 NE14      29.69F
ALLIANCE       CLOUDY    52  48  86 SE12      29.71R
SIDNEY         CLOUDY    54  47  77 NW10      29.74R
WHITECLAY        N/A     62  44  52 E8          N/A
BIG SPRINGS      N/A     69  47  45 E9          N/A
$$

...OBSERVATIONS IN NORTH CENTRAL NEBRASKA...

CITY           SKY/WX    TMP DP  RH WIND       PRES   REMARKS
VALENTINE      PTSUNNY   59  46  62 E18       29.76R
THEDFORD       MOSUNNY   57  48  72 E13G23    29.77R
AINSWORTH      CLOUDY    55  47  74 E14       29.78S
O`NEILL        PTSUNNY   59  46  63 SE8       29.80S
ORD            CLOUDY    56  45  66 E12       29.78R
BROKEN BOW     CLOUDY    56  46  69 E10       29.77R
BROWNLEE         N/A     58  45  61 E17         N/A
VALENTINE NWR    N/A     59  47  64 SE13        N/A
SPRINGVIEW       N/A     56  47  71 E8          N/A
HALSEY           N/A     56  47  70 E12         N/A
BREWSTER         N/A     56  49  76 E12         N/A
ROSE             N/A     56  50  81 E7          N/A
NEWPORT          N/A     57  48  72 E8          N/A
SARGENT          N/A     55  49  80 SE3         N/A
COMSTOCK         N/A     56  50  81 E12         N/A
EWING            N/A     58  46  64 E6G13       N/A
$$

...OBSERVATIONS IN SOUTHWEST NEBRASKA AND FAR NORTHEAST COLORADO...

CITY           SKY/WX    TMP DP  RH WIND       PRES   REMARKS
WRAY           FAIR      69  40  34 E10       29.69S
HOLYOKE        FAIR      72  41  33 E10       29.71R
IMPERIAL       MOSUNNY   68  44  42 E12       29.69R
OGALLALA       PTSUNNY   65  47  52 E9        29.71R
MCCOOK         MOSUNNY   64  51  62 E14       29.72R
LEXINGTON      SUNNY     56  49  77 E15       29.76R
PAXTON           N/A     67  50  54 E9          N/A
SUTHERLAND       N/A     60  49  68 E15         N/A
BRADY            N/A     57  49  74 N3G12       N/A
GOTHENBURG       N/A     58  48  70 E9          N/A
CALLAWAY         N/A     58  53  82 E12         N/A
$$

...NORTH PLATTE AREA...

CITY           SKY/WX    TMP DP  RH WIND       PRES   REMARKS
$$

...SOME WEATHER OBSERVATIONS FROM AROUND THE REGION...

CITY           SKY/WX    TMP DP  RH WIND       PRES   REMARKS
DENVER         CLOUDY    62  32  32 SW13      29.71R
LARAMIE        CLOUDY    50  32  50 S12       29.78S
CHEYENNE       PTSUNNY   52  39  61 NE10      29.77R
SCOTTSBLUFF    CLOUDY    60  39  45 W15       29.72R
RAPID CITY     CLOUDY    53  47  79 E3        29.77R
PIERRE         CLOUDY    58  46  64 SE15      29.78R
WINNER         CLOUDY    59  45  59 SE14      29.79R
SIOUX FALLS    PTSUNNY   57  41  55 E12       29.83R
OMAHA          CLOUDY    52  45  77 NE8       29.80R
GRAND ISLAND   CLOUDY    51  47  86 NE12      29.79S
KANSAS CITY    CLOUDY    50  48  93 N14       29.70R
WICHITA        MOSUNNY   71  53  52 N14       29.65S
HAYS           SUNNY     64  48  55 NE15      29.71R
LIBERAL        MOSUNNY   77  34  20 E6        29.66F
GOODLAND       MOSUNNY   69  43  38 E10       29.69F
$$



USA.gov is the U.S. government's official web portal to all federal, state and local government web resources and services.